Language selection

Features

My Weather Profile Weather Topics  | 

Douglas Channel: Past 24 Hour Conditions

 

South Hecate Strait - 46185

06:00 PM PST 15 December 2019Buoy position: 52.43N 129.79W
Disclaimer

This table is a summary of hourly weather conditions for the past 24 hours.
Please note that these observations might not always be representative of weather conditions over their associated marine area.

Date / Time
(PST)
Wind(knots) Wave height(m) Wave period(s) Pressure(kPa) Air tempC) Water tempC)
15 December 2019
18:00 WNW 16 gust 29 3.0 7.0 101.3 7 9
17:00 WNW 13 gust 25 2.6 7.0 101.4 7 9
16:00 WNW 12 gust 23 2.3 6.0 101.4 7 9
15:00 N/A N/A N/A N/A N/A N/A
14:00 WNW 12 gust 23 2.1 5.0 101.5 7 8
13:00 WNW 12 gust 22 2.1 5.0 101.6 6 8
12:00 WNW 10 gust 19 1.8 4.0 101.7 6 8
11:00 WNW 8 gust 17 1.7 12.0 101.7 6 9
10:00 WNW 8 gust 19 1.4 12.0 101.7 7 9
9:00 WNW 8 gust 16 1.3 11.0 101.7 6 9
8:00 WNW 6 gust 13 1.0 11.0 101.7 6 8
7:00 WNW 4 gust 12 0.9 10.0 101.7 5 8
6:00 WNW 4 gust 12 0.9 12.0 101.8 4 8
5:00 NNW 2 gust 8 0.9 11.0 101.8 4 8
4:00 WNW 2 gust 8 0.9 9.0 101.8 4 8
3:00 NW 2 gust 8 1.1 12.0 101.8 3 8
2:00 NW 4 gust 10 1.2 10.0 101.8 4 8
1:00 NNW 2 gust 6 1.3 12.0 101.8 4 8
0:00 NNW 2 gust 6 1.4 12.0 101.8 4 8
14 December 2019
23:00 NW 2 gust 6 1.2 12.0 101.8 4 8
22:00 calm 1.1 9.0 101.8 3 8
21:00 calm 1.0 12.0 101.8 4 8
20:00 calm 1.0 10.0 101.8 4 8
19:00 calm 0.9 12.0 101.8 5 8
18:00 calm 0.8 12.0 101.8 4 8

Zoom-in to make a selection

Map of Pacific - North Coast marine weather areas Middle Nomad - 46004 South Nomad - 46036 Dixon Entrance Central - 46145 South Moresby - 46147 Nanakwa Shoal - 46181 North Hecate Strait - 46183 North Nomad - 46184 South Hecate Strait - 46185 West Sea Otter - 46204 West Dixon Entrance - 46205 East Dellwood - 46207 West Moresby - 46208 Sartine Island Cape St.James Kindakun Rocks Langara Island Masset Municipal Airport Rose Spit Sandspit Airport Bella Bella Airport Bella Coola Airport Bonilla Island Cathedral Point Cumshewa Island Grey Islet Holland Rock Lucy Islands Lightstation Prince Rupert Airport
Legend:
buoy Buoy
land station Land Station

Pacific - North Coast Area

Another Region

What we are doing

Date modified: